Location: Ebersheim
(48.3033°N, 7.4991°E)
Time: 16:47:10
(UTC+00:00)

Gbstr 26 Del rocket - Pass Details

Date: 27 February 2020
Orbit: 493 x 1264 km, 51.8° (Epoch: 07 April)

Event Time Altitude Azimuth Distance (km) Brightness Sun altitude
Rises 18:54:12 0° 247° (WSW) 2,663 7.3 -18.1°
Reaches altitude 10° 18:56:15 10° 248° (WSW) 1,834 6.4 -18.4°
Maximum altitude 19:00:23 88° 340° (NNW) 628 3.0 -19.1°
Enters shadow 19:02:11 38° 66° (ENE) 1,010 3.7 -19.4°
